Погода в Гарцеве

Россия / Брянская область     52°44′28″N   32°59′41″E
темп.,
°C
ветер,
м/с
пор.,
м/с
влажн.,
%
обл.,
%
осадки,
мм/ч
давл.,
гПа
погр.,
м
18 апреля, вс
вс1800:00+6юз3591100 2.6 1017788
03:00+5ююз4694100 4.4 1016667
06:00+5ююв4495100 1.7 1016598
09:00+6юв468668 1.8 1017624
12:00+9в456493 0.1 10171349
15:00+9в3567100 0.1 1018738
18:00+9ссв357084 0.1 1018647
21:00+6с38915 0.1 1019170
19 апреля, пн
пн1900:00+5св59905 0.0 1020286
03:00+3св38979 0.0 1020195
06:00+3ссв39965 0.0 1020223
09:00+8св587970 0.0 1019673
12:00+10св6775100 0.3 1019999
15:00+9св567683 0.5 1019916
18:00+7св6986100 0.0 1020703
21:00+5св5790100 0.1 1020681
20 апреля, вт
вт2000:00+4св4796100 0.0 1019652
03:00+4св4694100 0.1 1018816
06:00+3св4688100 0.0 1016764
09:00+3св4695100 0.1 1016519
12:00+4св458999 0.1 1014521
15:00+6ссв6782100 0.1 1011746
18:00+6с61183100 0.0 1008576
21:00+6с71193100 0.4 1005679
21 апреля, ср
ср2100:00+5с6994100 0.8 1002929
03:00+4сз61096100 1.3 1001704
06:00+2зсз71296100 0.1 1002598
09:00+3з81396100 0.3 1004929
12:00+5з71183100 0.1 10071238
15:00+7з61070100 0.1 10101410
18:00+7зюз51072100 0.0 1012686
21:00+6юз3677100 0.1 1014136
22 апреля, чт
чт2200:00+4ююз498580 0.0 1015163
03:00+5ю488699 0.1 1016196
06:00+4ююз379491 0.0 1016139
09:00+9ююз45798 0.1 1017388
12:00+13ююз566336 0.7 10181175
15:00+15юз465177 1.9 10171647
18:00+13зюз356211 1.0 1018436
21:00+9ю338121 1.6 101924